Weather History for KI39 - November, 2013

Change the Weather History Date:

Friday, November 15, 2013

  Actual Average (KLOZ) Record (KLOZ)
Temperature  
Mean Temperature 49 °F 48 °F  
Max Temperature 57 °F 59 °F 76 °F (1964)
Min Temperature 41 °F 37 °F 10 °F (1969)
Degree Days  
Heating Degree Days 16 17  
Month to date heating degree days 225  
Since 1 July heating degree days 531  
Cooling Degree Days 0 0  
Month to date cooling degree days 0  
Moisture  
Dew Point 29 °F    
Average Humidity 52    
Maximum Humidity 93    
Minimum Humidity 31    
Precipitation  
Precipitation 0.00 in 0.12 in 1.09 in (2005)
Month to date precipitation 1.73  
Sea Level Pressure  
Sea Level Pressure 30.18 in    
Wind  
Wind Speed 7 mph (South)    
Max Wind Speed 14 mph    
Max Gust Speed 17 mph    
Visibility 10 miles    
Events      
T = Trace of Precipitation, MM = Missing Value Source: NWS Daily Summary

Daily Weather History Graph

Daily Weather History Graph

Search for Another Location

Airport or City:

Trip Planner

Search our weather history database for the weather conditions in past years. The results will help you decide how hot, cold, wet, or windy it might be!

Date:

Astronomy

Nov. 15, 2013 Rise Set
Actual Time 7:17 AM EST 5:26 PM EST
Civil Twilight 6:49 AM EST 5:54 PM EST
Nautical Twilight 6:17 AM EST 6:25 PM EST
Astronomical Twilight 5:46 AM EST 6:56 PM EST
Moon 4:20 PM EST (11/15) 5:14 AM EST (11/15)
Length of Visible Light 11h 04m
Length of Day
10h 08m
Waxing Gibbous, 96% of the Moon is Illuminated
Nov 15
Waxing Gibbous
Nov 17
Full
Nov 25
Last Quarter
Dec 2
New
Dec 9
First Quarter

Hourly Weather History & Observations

Time (EST) Temp. Windchill Dew Point Humidity Pressure Visibility Wind Dir Wind Speed Gust Speed Precip Events Conditions
12:15 AM 41.0 °F 36.4 °F 17.6 °F 39% 30.22 in 10.0 mi South 6.9 mph - N/A   Clear
12:35 AM 41.0 °F 36.4 °F 17.6 °F 39% 30.22 in 10.0 mi South 6.9 mph - N/A   Clear
12:55 AM 41.0 °F 35.8 °F 17.6 °F 39% 30.21 in 10.0 mi South 8.1 mph - N/A   Clear
1:15 AM 41.0 °F 36.4 °F 17.6 °F 39% 30.20 in 10.0 mi South 6.9 mph - N/A   Clear
1:55 AM 41.0 °F 36.4 °F 15.8 °F 36% 30.18 in 10.0 mi South 6.9 mph - N/A   Clear
2:15 AM 41.0 °F 37.1 °F 15.8 °F 36% 30.18 in 10.0 mi South 5.8 mph - N/A   Clear
2:35 AM 41.0 °F 35.8 °F 15.8 °F 36% 30.20 in 10.0 mi South 8.1 mph - N/A   Clear
2:55 AM 41.0 °F 34.7 °F 15.8 °F 36% 30.19 in 10.0 mi South 10.4 mph - N/A   Clear
3:15 AM 42.8 °F 37.0 °F 15.8 °F 34% 30.20 in 10.0 mi SSW 10.4 mph - N/A   Clear
3:35 AM 42.8 °F 37.0 °F 15.8 °F 34% 30.19 in 10.0 mi SSW 10.4 mph - N/A   Clear
3:55 AM 42.8 °F 37.5 °F 15.8 °F 34% 30.19 in 10.0 mi SSW 9.2 mph - N/A   Clear
4:15 AM 42.8 °F 37.5 °F 15.8 °F 34% 30.18 in 10.0 mi SSW 9.2 mph - N/A   Clear
4:35 AM 42.8 °F 37.0 °F 15.8 °F 34% 30.18 in 10.0 mi SSW 10.4 mph - N/A   Clear
4:55 AM 42.8 °F 37.5 °F 15.8 °F 34% 30.18 in 10.0 mi SSW 9.2 mph - N/A   Clear
5:15 AM 42.8 °F 37.0 °F 15.8 °F 34% 30.19 in 10.0 mi SSW 10.4 mph - N/A   Clear
5:35 AM 44.6 °F 38.8 °F 15.8 °F 31% 30.19 in 10.0 mi SSW 11.5 mph 16.1 mph N/A   Clear
5:55 AM 44.6 °F 39.2 °F 15.8 °F 31% 30.19 in 10.0 mi South 10.4 mph - N/A   Clear
6:15 AM 44.6 °F 39.7 °F 15.8 °F 31% 30.19 in 10.0 mi South 9.2 mph - N/A   Clear
6:35 AM 44.6 °F 40.2 °F 15.8 °F 31% 30.20 in 10.0 mi South 8.1 mph - N/A   Clear
6:55 AM 44.6 °F 40.2 °F 15.8 °F 31% 30.20 in 10.0 mi South 8.1 mph - N/A   Clear
7:15 AM 44.6 °F 40.7 °F 15.8 °F 31% 30.21 in 10.0 mi South 6.9 mph - N/A   Clear
7:35 AM 42.8 °F 39.3 °F 17.6 °F 36% 30.22 in 10.0 mi South 5.8 mph - N/A   Clear
7:55 AM 44.6 °F 40.2 °F 17.6 °F 34% 30.22 in 10.0 mi South 8.1 mph - N/A   Clear
8:15 AM 44.6 °F 42.2 °F 17.6 °F 34% 30.22 in 10.0 mi SSE 4.6 mph - N/A   Clear
8:35 AM 44.6 °F 41.4 °F 19.4 °F 37% 30.22 in 10.0 mi SSE 5.8 mph - N/A   Clear
8:55 AM 46.4 °F 42.9 °F 19.4 °F 34% 30.22 in 10.0 mi South 6.9 mph - N/A   Clear
9:15 AM 46.4 °F 41.5 °F 19.4 °F 34% 30.22 in 10.0 mi South 10.4 mph - N/A   Mostly Cloudy
9:35 AM 48.2 °F - 21.2 °F 34% 30.22 in 10.0 mi South 11.5 mph - N/A   Mostly Cloudy
9:55 AM 48.2 °F - 23.0 °F 37% 30.22 in 10.0 mi SSW 11.5 mph 17.3 mph N/A   Overcast
10:15 AM 50.0 °F - 23.0 °F 35% 30.22 in - South 9.2 mph - N/A   Unknown
10:35 AM 51.8 °F - 26.6 °F 38% 30.23 in 10.0 mi SSW 10.4 mph - N/A   Overcast
10:55 AM 51.8 °F - 26.6 °F 38% 30.22 in 10.0 mi SSW 9.2 mph - N/A   Scattered Clouds
11:15 AM 55.4 °F - 30.2 °F 38% 30.22 in 10.0 mi SW 9.2 mph 16.1 mph N/A   Scattered Clouds
11:35 AM 57.2 °F - 30.2 °F 36% 30.22 in 10.0 mi WSW 12.7 mph - N/A   Clear
11:55 AM 55.4 °F - 32.0 °F 41% 30.21 in 10.0 mi WSW 13.8 mph 17.3 mph N/A   Clear
12:15 PM 55.4 °F - 32.0 °F 41% 30.20 in 10.0 mi SW 10.4 mph 16.1 mph N/A   Clear
12:35 PM 55.4 °F - 32.0 °F 41% 30.18 in 10.0 mi SW 9.2 mph - N/A   Scattered Clouds
12:55 PM 55.4 °F - 32.0 °F 41% 30.18 in 10.0 mi SW 6.9 mph - N/A   Scattered Clouds
1:15 PM 55.4 °F - 33.8 °F 44% 30.17 in 10.0 mi SSW 5.8 mph - N/A   Clear
1:35 PM 55.4 °F - 33.8 °F 44% 30.17 in 10.0 mi SW 6.9 mph - N/A   Clear
1:55 PM 55.4 °F - 33.8 °F 44% 30.16 in 10.0 mi SSW 4.6 mph - N/A   Scattered Clouds
2:15 PM 55.4 °F - 33.8 °F 44% 30.15 in 10.0 mi SW 5.8 mph - N/A   Scattered Clouds
2:35 PM 55.4 °F - 33.8 °F 44% 30.14 in 10.0 mi SSW 4.6 mph - N/A   Clear
2:55 PM 55.4 °F - 33.8 °F 44% 30.14 in 10.0 mi SSE 5.8 mph - N/A   Mostly Cloudy
3:15 PM 53.6 °F - 33.8 °F 47% 30.13 in 10.0 mi SSE 4.6 mph - N/A   Mostly Cloudy
3:35 PM 55.4 °F - 33.8 °F 44% 30.12 in 10.0 mi SSE 6.9 mph - N/A   Mostly Cloudy
4:35 PM 53.6 °F - 35.6 °F 51% 30.13 in 10.0 mi SSE 4.6 mph - N/A   Overcast
4:55 PM 53.6 °F - 35.6 °F 51% 30.13 in 10.0 mi South 3.5 mph - N/A   Overcast
5:15 PM 51.8 °F - 37.4 °F 58% 30.14 in 10.0 mi SSE 4.6 mph - N/A   Overcast
5:35 PM 50.0 °F - 39.2 °F 66% 30.13 in 10.0 mi SE 5.8 mph - N/A   Overcast
5:55 PM 50.0 °F - 39.2 °F 66% 30.13 in 10.0 mi SE 5.8 mph - N/A   Overcast
6:15 PM 48.2 °F - 41.0 °F 76% 30.13 in 10.0 mi SSE 6.9 mph - N/A   Overcast
6:35 PM 48.2 °F - 41.0 °F 76% 30.15 in 10.0 mi South 5.8 mph - N/A   Overcast
6:55 PM 48.2 °F - 42.8 °F 82% 30.14 in 10.0 mi SSE 4.6 mph - N/A   Overcast
7:15 PM 46.4 °F 44.3 °F 42.8 °F 87% 30.15 in 10.0 mi SSE 4.6 mph - N/A   Overcast
7:35 PM 46.4 °F 43.5 °F 42.8 °F 87% 30.13 in 10.0 mi SE 5.8 mph - N/A   Overcast
7:55 PM 46.4 °F 43.5 °F 44.6 °F 93% 30.15 in 10.0 mi SSE 5.8 mph - N/A   Overcast
8:15 PM 46.4 °F 44.3 °F 44.6 °F 93% 30.14 in 10.0 mi SE 4.6 mph - N/A   Overcast
8:35 PM 46.4 °F 44.3 °F 44.6 °F 93% 30.14 in 10.0 mi SSE 4.6 mph - N/A   Overcast
8:55 PM 46.4 °F 42.9 °F 44.6 °F 93% 30.14 in 10.0 mi SE 6.9 mph - N/A   Overcast
9:15 PM 48.2 °F - 44.6 °F 87% 30.14 in 10.0 mi SSE 8.1 mph - N/A   Overcast
9:35 PM 48.2 °F - 44.6 °F 87% 30.15 in 10.0 mi SSE 5.8 mph - N/A   Overcast
9:55 PM 48.2 °F - 44.6 °F 87% 30.15 in 10.0 mi Calm Calm - N/A   Overcast
10:15 PM 48.2 °F - 44.6 °F 87% 30.15 in 10.0 mi SSE 3.5 mph - N/A   Overcast
10:35 PM 48.2 °F - 44.6 °F 87% 30.15 in 10.0 mi Calm Calm - N/A   Overcast
10:55 PM 46.4 °F 42.9 °F 44.6 °F 93% 30.13 in 10.0 mi SE 6.9 mph - N/A   Overcast
11:15 PM 46.4 °F - 44.6 °F 93% 30.14 in 10.0 mi Calm Calm - N/A   Overcast
11:35 PM 46.4 °F - 44.6 °F 93% 30.14 in 10.0 mi Calm Calm - N/A   Overcast
11:55 PM 44.6 °F 42.2 °F 42.8 °F 93% 30.14 in 5.0 mi SSE 4.6 mph - N/A   Scattered Clouds